This is the latest recevied weather packets stored in our database for station/object KI5RAB. If no packets are shown the sender has not sent any weather packets the latest 10 day(s).
| Time | Temp. | Humidity | Pressure | Rain* | Wind** | Luminosity | Snow |
|---|---|---|---|---|---|---|---|
| 1788302760 | 36.67° C | 38% | 1016.1 hPa | 0 mm | - | 226 W/m² | - |
| 1788302456 | 36.67° C | 41% | 1016.2 hPa | 0 mm | - | 247 W/m² | - |
| 1788302151 | 36.67° C | 40% | 1016.1 hPa | 0 mm | - | 264 W/m² | - |
| 1788301847 | 37.22° C | 41% | 1016 hPa | 0 mm | - | 278 W/m² | - |
| 1788301542 | 37.22° C | 40% | 1016 hPa | 0 mm | - | 287 W/m² | - |
| 1788301238 | 37.22° C | 39% | 1015.9 hPa | 0 mm | - | 303 W/m² | - |
| 1788300934 | 37.22° C | 40% | 1015.8 hPa | 0 mm | - | 319 W/m² | - |
| 1788300629 | 38.33° C | 39% | 1016 hPa | 0 mm | - | 337 W/m² | - |
| 1788300324 | 37.78° C | 38% | 1016 hPa | 0 mm | - | 350 W/m² | - |
| 1788300022 | 37.22° C | 40% | 1016.3 hPa | 0 mm | - | 362 W/m² | - |
| 1788299721 | 37.22° C | 40% | 1016.1 hPa | 0 mm | - | 378 W/m² | - |
| 1788299420 | 37.78° C | 41% | 1016.1 hPa | 0 mm | - | 392 W/m² | - |
| 1788299119 | 37.22° C | 41% | 1016.2 hPa | 0 mm | - | 390 W/m² | - |
| 1788298814 | 37.22° C | 41% | 1016.1 hPa | 0 mm | - | 420 W/m² | - |
| 1788298508 | 37.78° C | 39% | 1016.3 hPa | 0 mm | - | 439 W/m² | - |
| 1788298208 | 37.22° C | 42% | 1016.4 hPa | 0 mm | - | 459 W/m² | - |
| 1788297903 | 37.78° C | 41% | 1016.5 hPa | 0 mm | - | 469 W/m² | - |
| 1788297599 | 37.22° C | 42% | 1016.5 hPa | 0 mm | - | 472 W/m² | - |
| 1788297294 | 36.67° C | 41% | 1016.4 hPa | 0 mm | - | 487 W/m² | - |
| 1788296990 | 36.67° C | 42% | 1016.6 hPa | 0 mm | - | 494 W/m² | - |
| 1788296686 | 36.11° C | 42% | 1016.8 hPa | 0 mm | - | 522 W/m² | - |
| 1788296382 | 36.67° C | 40% | 1016.7 hPa | 0 mm | - | 514 W/m² | - |
| 1788296076 | 36.67° C | 41% | 1016.7 hPa | 0 mm | - | 545 W/m² | - |
| 1788295771 | 37.22° C | 42% | 1017.1 hPa | 0 mm | - | 546 W/m² | - |
| 1788295468 | 36.67° C | 41% | 1016.9 hPa | 0 mm | - | 556 W/m² | - |
* Rain latest hour (hover to see other rain measurements)
** Current wind speed in m/s (hover to see current wind gust speed)